Location: Austin
(30.3000°N, 97.7500°W)
Time: 04:53:52
(UTC-05:00)

Meteor 1-13 Rocket - Pass Details

Date: 18 March 2023
Orbit: 830 x 912 km, 81.3° (Epoch: 01 April)

Event Time Altitude Azimuth Distance (km) Brightness Sun altitude
Rises 20:35:25 0° 352° (N) 3,529 7.6 -12.5°
Reaches altitude 10° 20:37:52 10° 353° (N) 2,592 6.9 -13.0°
Maximum altitude 20:43:49 89° 81° (E) 915 4.3 -14.3°
Drops below altitude 10° 20:49:45 10° 174° (S) 2,587 6.6 -15.6°
Sets 20:52:12 0° 174° (S) 3,521 7.3 -16.1°
